GW4079 Weather Reports


Display with metric or nautical units.
time (UTC)temp
F
wind
direction
speed
MPH
gust
MPH
rain 1hr
in
rain 24hr
in
rain mn
in
humidity
%
barometer
mb
20260904091553 52 12 6.0 9.0 0.00 0.00 0.00 61 1008.9
20260904090058 52 26 6.0 10.0 0.00 0.00 0.00 61 1009.0
20260904084649 54 49 8.0 12.0 0.00 0.00 0.00 57 1009.0
20260904083036 54 57 10.0 13.0 0.00 0.00 0.00 57 1009.3
20260904081534 55 51 10.0 13.0 0.00 0.00 0.00 56 1009.5
20260904080040 55 51 9.0 12.0 0.00 0.00 0.00 57 1009.6
20260904074537 56 40 8.0 10.0 0.00 0.00 0.00 55 1009.9
20260904073036 57 51 9.0 12.0 0.00 0.00 0.00 54 1010.0
20260904071537 57 54 10.0 12.0 0.00 0.00 0.00 55 1010.1
20260904070042 56 48 6.0 10.0 0.00 0.00 0.00 55 1010.0
20260904064538 57 46 6.0 10.0 0.00 0.00 0.00 53 1010.1
20260904063045 58 43 7.0 10.0 0.00 0.00 0.00 51 1010.1
20260904061536 58 41 5.0 9.0 0.00 0.00 0.00 52 1010.3
20260904060109 58 36 5.0 9.0 0.00 0.00 0.00 52 1010.3
20260904054540 58 11 4.0 6.0 0.00 0.00 0.00 53 1010.4
20260904053126 57 13 5.0 8.0 0.00 0.00 0.00 55 1010.4
20260904051605 57 5 6.0 9.0 0.00 0.00 0.00 55 1010.4
20260904050045 56 13 4.0 6.0 0.00 0.00 0.00 55 1010.4
20260904044557 55 18 3.0 6.0 0.00 0.00 0.00 56 1010.7
20260904043043 54 18 4.0 6.0 0.00 0.00 0.00 57 1010.8
20260904041543 54 350 3.0 5.0 0.00 0.00 0.00 57 1010.7
20260904040053 56 21 3.0 6.0 0.00 0.00 0.00 53 1010.7
20260904034546 56 13 4.0 5.0 0.00 0.00 0.00 52 1010.8
20260904033100 57 16 3.0 6.0 0.00 0.00 0.00 50 1010.8
20260904031544 59 16 4.0 6.0 0.00 0.00 0.00 48 1010.8
20260904030046 60 5 5.0 8.0 0.00 0.00 0.00 47 1010.5
20260904024556 60 10 6.0 9.0 0.00 0.00 0.00 47 1010.1
20260904023053 61 12 4.0 8.0 0.00 0.00 0.00 46 1010.2
20260904021542 62 22 4.0 6.0 0.00 0.00 0.00 43 1010.0
20260904020050 64 360 5.0 9.0 0.00 0.00 0.00 41 1010.0
20260904014559 67 360 5.0 10.0 0.00 0.00 0.00 38 1009.9
20260904013046 69 335 9.0 14.0 0.00 0.00 0.00 36 1009.8
20260904011551 72 325 10.0 14.0 0.00 0.00 0.00 33 1010.0
20260904010058 73 320 9.0 14.0 0.00 0.00 0.00 32 1009.8
20260904004551 74 296 10.0 14.0 0.00 0.00 0.00 31 1009.7
20260904003048 75 292 10.0 16.0 0.00 0.00 0.00 31 1009.7
20260904001544 76 293 11.0 15.0 0.00 0.00 0.00 29 1009.4
20260904000111 76 299 6.0 16.0 0.00 0.00 0.00 29 1009.2
20260903234546 76 275 12.0 19.0 0.00 0.01 0.00 28 1009.2
20260903233119 76 259 14.0 21.0 0.00 0.01 0.00 26 1009.2
20260903231550 77 259 15.0 22.0 0.00 0.01 0.00 25 1009.1
20260903230106 77 252 22.0 29.0 0.00 0.01 0.00 25 1009.2
20260903224552 77 248 19.0 31.0 0.00 0.02 0.00 25 1009.1
20260903223128 78 234 16.0 27.0 0.00 0.02 0.00 25 1008.9
20260903221548 77 245 16.0 26.0 0.00 0.02 0.00 25 1008.8
20260903220057 78 248 22.0 32.0 0.00 0.02 0.00 25 1008.7
20260903214602 77 239 19.0 28.0 0.00 0.02 0.00 26 1008.8
20260903213105 77 254 18.0 26.0 0.00 0.02 0.00 26 1008.6
20260903211600 76 265 14.0 25.0 0.00 0.02 0.00 27 1008.5
20260903210114 76 219 17.0 29.0 0.00 0.02 0.00 27 1008.6
20260903204548 76 215 19.0 32.0 0.00 0.02 0.00 27 1008.5
20260903203049 75 253 17.0 24.0 0.00 0.02 0.00 28 1008.6
20260903201553 74 246 16.0 26.0 0.00 0.02 0.00 29 1008.8
20260903200051 75 233 18.0 24.0 0.00 0.02 0.00 28 1008.5
20260903194559 73 243 15.0 24.0 0.00 0.02 0.00 31 1008.8
20260903193046 73 236 17.0 25.0 0.00 0.02 0.00 30 1008.8
20260903191551 74 246 21.0 29.0 0.00 0.02 0.00 29 1008.8
20260903190052 74 241 18.0 27.0 0.00 0.02 0.00 29 1008.7
20260903184553 74 252 18.0 28.0 0.00 0.02 0.00 30 1008.6
20260903183056 73 254 16.0 26.0 0.00 0.02 0.00 31 1008.8
20260903181555 73 230 17.0 25.0 0.00 0.02 0.00 31 1008.9
20260903174547 70 217 10.0 13.0 0.00 0.02 0.00 39 1009.2
20260903173056 66 252 3.0 7.0 0.00 0.02 0.00 48 1009.4
20260903171558 64 188 2.0 8.0 0.00 0.02 0.00 50 1009.5
20260903170107 63 214 6.0 11.0 0.00 0.02 0.00 53 1009.6
20260903164554 61 256 3.0 7.0 0.00 0.02 0.00 58 1009.5
20260903163052 58 219 2.0 6.0 0.00 0.02 0.00 62 1009.3
20260903161548 56 196 4.0 6.0 0.00 0.02 0.00 66 1009.3
20260903160106 55 180 5.0 7.0 0.00 0.02 0.00 67 1009.3
20260903154557 56 157 3.0 8.0 0.00 0.02 0.00 67 1009.4
20260903153058 56 246 4.0 9.0 0.00 0.02 0.00 65 1009.2
20260903151552 56 236 10.0 14.0 0.00 0.02 0.00 67 1009.2
20260903150103 53 253 2.0 5.0 0.00 0.02 0.00 71 1009.4
20260903144552 51 150 0.0 0.0 0.00 0.02 0.00 75 1009.1
20260903143108 50 150 0.0 3.0 0.00 0.02 0.00 76 1009.2
20260903141608 48 150 0.0 0.0 0.00 0.02 0.00 80 1009.2
20260903140053 47 150 0.0 0.0 0.00 0.02 0.00 80 1008.9
20260903134549 46 150 0.0 1.0 0.00 0.02 0.00 81 1008.9
20260903133418 45 150 0.0 0.0 0.00 0.02 0.00 81 1008.8
20260903133201 45 150 0.0 0.0 0.00 0.02 0.00 81 1008.8
20260903131602 44 150 0.0 0.0 0.00 0.02 0.00 81 1008.5
20260903130056 45 150 0.0 6.0 0.00 0.02 0.00 79 1008.3
20260903124542 45 150 0.0 0.0 0.00 0.02 0.00 78 1008.3
20260903123047 46 150 0.0 1.0 0.00 0.02 0.00 78 1008.0
20260903121557 45 150 0.0 0.0 0.00 0.02 0.00 78 1007.9
20260903120044 46 150 0.0 7.0 0.00 0.02 0.00 78 1008.2
20260903114540 46 150 0.0 3.0 0.00 0.02 0.00 77 1008.0
20260903113048 46 144 0.0 0.0 0.00 0.02 0.00 78 1008.1
20260903111547 43 144 0.0 3.0 0.00 0.02 0.00 80 1008.0
20260903110047 46 144 0.0 0.0 0.00 0.02 0.00 77 1008.0
20260903104554 46 144 0.0 7.0 0.00 0.02 0.00 77 1008.1
20260903103050 44 5 3.0 4.0 0.00 0.02 0.00 79 1008.0
20260903101551 45 190 0.0 0.0 0.00 0.02 0.00 78 1008.0
20260903100047 47 190 0.0 0.0 0.00 0.02 0.00 72 1007.8
20260903094549 48 190 0.0 0.0 0.00 0.02 0.00 72 1008.0
20260903093057 46 190 0.0 1.0 0.00 0.02 0.00 77 1007.8